Location: Newark
(42.9277°N, 71.8621°W)
Time: 18:30:06
(UTC+00:00)

Transit 4A - Pass Details

Date: 13 May 2021
Orbit: 872 x 973 km, 66.8° (Epoch: 15 June)

Event Time Altitude Azimuth Distance (km) Brightness Sun altitude
Rises 06:14:15 0° 335° (NNW) 3,501 11.5 -25.2°
Reaches altitude 10° 06:17:20 10° 350° (N) 2,546 10.9 -25.0°
Maximum altitude 06:21:54 23° 42° (NE) 1,783 10.1 -24.6°
Drops below altitude 10° 06:26:26 10° 93° (E) 2,519 10.4 -24.2°
Sets 06:29:26 0° 108° (ESE) 3,454 11.0 -24.0°
